Vertical_Velocity
-5 -8 -5 -1 -2 -1 -3 -4 -1 3 -3 -1 -1 5 -2 -0 -9 -6 2 5 -4 0 5 1 3 -2 -0 5 4 3 1 1 2 1 -2 1 -3 -2 -1 -2 -1 0 -3
2 2 -6 -1 -2 -1 -1 2 10 1 4 -6 11 5 2 1 5 -3 -1 -7 -0 -4 -6 5 -0 1 1 5 6 1 1 3 4 2 3 1 -6 -1 0 -2 -3 1 -5
-6 8 9 -2 7 2 3 -15 -12 7 5 13 2 -2 -2 2 -2 4 -2 6 -12 2 3 -1 -4 -0 3 0 1 1 1 6 1 -0 0 1 1 -4 1 0 -5 -1 -4
2 -3 9 12 -4 -12 -2 -5 13 15 35 7 4 2 4 6 -0 -2 16 1 7 5 3 2 4 -0 1 -1 4 -0 5 3 2 1 -1 3 3 -3 -1 -1 -4 -4 1
-3 -5 -5 3 -8 -12 -2 -6 7 -0 23 -8 18 13 25 10 -8 4 2 5 5 -1 7 5 5 4 -1 4 3 -2 3 5 3 -0 0 -2 -3 -2 -7 4 -1 2 5
5 4 21 2 18 6 4 11 3 -4 2 7 5 -8 -8 6 1 -2 -3 4 -1 5 -11 2 -10 13 4 -2 -1 4 3 4 1 4 -0 -2 0 -2 2 7 1 1 -1
1 6 11 2 13 8 13 5 -0 16 11 8 3 16 10 3 5 3 4 9 6 -1 6 8 9 3 5 5 2 2 -1 4 6 2 0 1 0 -1 20 -17 -8 -3 -1
-3 -1 1 5 -1 2 2 7 15 13 11 10 9 5 2 2 4 9 13 1 -5 0 4 4 4 -0 -1 4 1 9 -3 4 -3 2 -1 -0 4 13 1 6 1 2 1
-5 -1 2 7 2 -0 -3 -1 5 -3 0 -2 6 -1 -1 -1 -2 -0 2 2 -3 -4 -3 -1 3 1 2 7 6 3 5 -5 5 9 22 -2 4 -9 -6 1 -3 -2 1
-3 -7 0 5 4 1 -0 -3 3 -1 -1 4 1 3 8 -3 -1 -2 12 10 4 1 7 -1 -1 -4 2 -2 5 2 2 -1 5 2 -3 -1 6 -3 -4 3 -0 1 4
-0 2 -1 -3 -3 -5 0 2 4 2 2 2 1 1 0 -0 -2 -0 -1 -1 -2 -1 -1 0 3 2 12 23 -11 5 2 10 18 16 15 -2 8 -2 -3 -0 0 -1 1
0 -1 1 -0 -1 2 -3 -1 -0 -3 -3 -1 -1 -3 -1 -0 3 4 3 2 3 -3 -3 -3 -2 2 7 6 2 8 -0 2 6 3 0 1 2 -4 -4 -7 -4 3 5
-1 -2 -1 -0 -0 -0 0 -4 -6 -6 -7 -5 -6 -5 -3 -4 -3 -4 -3 -2 1 -2 3 2 1 -2 -6 -2 2 5 6 6 2 20 -2 -3 4 6 3 -7 2 1 -5
-4 -3 -3 -7 -4 -7 -5 -5 -2 -2 -1 -1 -2 -3 -4 -5 -3 -3 -0 -0 3 2 3 3 -0 -3 2 1 -2 4 -4 8 13 5 -4 4 7 -6 -5 3 1 -2 -4
-1 -3 -3 -5 -6 -7 -5 -5 -8 -9 -8 -7 -7 -6 -9 -7 -6 -5 -7 -8 -5 -2 -3 -2 -0 2 0 0 2 5 0 10 -4 -2 4 3 1 6 1 4 6 1 -0
3 -2 -3 -5 -3 -1 -2 -1 -5 -2 1 0 4 2 -2 -0 0 1 0 -1 -2 -3 -7 -8 -7 -5 -3 0 -2 -2 6 6 6 24 -8 18 -8 -4 -2 -0 -2 -3 -3
-4 -2 4 1 2 2 3 0 1 4 3 -2 -4 -6 -2 -5 -2 -5 -9 -11 -2 -2 1 -3 -3 -3 -1 -0 4 1 -4 -4 5 7 10 3 2 11 9 -4 3 2 1
3 4 2 4 5 4 2 -2 -3 -6 -1 3 11 3 3 2 3 2 7 10 -4 -6 -0 -1 -1 2 -0 -3 -0 -1 5 4 5 2 10 7 1 0 -3 -5 3 -4 3
1 -1 1 -0 -3 -6 -5 2 5 2 -3 -3 -2 4 -5 -3 -5 -5 -5 -0 -0 -2 -3 -3 1 -0 1 3 0 6 5 0 3 6 6 4 4 4 4 3 4 0 7
-2 -4 -7 -6 -4 -1 -3 -3 -9 -14 -14 -13 -10 -8 -9 -6 -1 -2 -2 -5 -4 -1 -2 -2 -3 -3 1 3 0 -4 -2 4 0 5 -2 1 3 4 3 1 7 5 -4
4 0 -2 0 -1 -1 -7 -13 -6 0 0 1 1 2 -3 -5 -3 -2 -3 -1 2 2 -3 -4 -3 -2 -3 -1 4 2 -1 2 1 8 4 0 3 3 1 5 5 -1 -3
-5 -5 -5 -7 -11 -13 -5 4 2 1 0 -2 -2 0 1 3 -2 -3 -1 -0 1 0 2 3 -0 -1 2 1 5 1 9 12 5 13 1 2 7 8 6 6 3 -3 2
-7 -9 -8 -9 -3 1 2 3 1 1 1 1 -0 -3 -3 -0 -0 -0 -1 -2 -2 -1 -0 -0 1 -3 5 5 5 3 0 -4 10 14 13 7 7 6 5 2 1 3 0
-8 -6 -2 -3 1 2 -1 -1 -0 -2 -3 -1 -1 1 -1 -0 -3 -1 0 -2 -1 0 2 1 2 5 3 -2 -3 -4 -1 -1 5 6 2 3 8 10 6 -3 2 2 0
-5 -3 -3 1 2 -2 -3 1 2 -1 1 1 -0 2 -1 1 -1 1 -1 -2 -3 -3 3 1 -0 3 -2 -4 7 8 9 7 6 2 5 13 10 2 4 3 1 0 2
-5 -3 -1 -2 -1 -1 -2 2 3 -2 2 -0 -0 2 -2 -2 -1 1 -3 0 -5 -3 1 1 0 4 -5 -1 2 5 5 6 9 10 7 -2 -3 -1 -3 -1 3 1 -1
Height
1390 1394 1397 1401 1404 1406 1408 1410 1413 1417 1419 1423 1426 1430 1436 1440 1444 1454 1462 1466 1471 1480 1486 1491 1497 1501 1507 1512 1515 1518 1520 1522 1524 1526 1529 1530 1530 1531 1532 1533 1533 1533 1533
1389 1390 1391 1393 1396 1396 1398 1400 1403 1404 1406 1413 1419 1423 1426 1434 1440 1446 1453 1458 1464 1472 1479 1485 1490 1496 1500 1505 1508 1511 1513 1515 1517 1520 1522 1523 1524 1526 1526 1526 1527 1527 1528
1382 1381 1382 1384 1383 1386 1388 1394 1396 1397 1397 1404 1409 1417 1421 1427 1435 1441 1447 1453 1459 1467 1472 1478 1484 1489 1493 1497 1501 1503 1506 1508 1509 1512 1514 1517 1517 1519 1518 1519 1522 1522 1522
1375 1376 1378 1380 1379 1380 1382 1387 1389 1391 1386 1395 1403 1409 1415 1421 1428 1436 1440 1447 1456 1462 1467 1471 1476 1480 1484 1489 1493 1495 1498 1500 1501 1504 1507 1509 1510 1512 1514 1513 1515 1516 1515
1370 1374 1376 1376 1374 1373 1377 1381 1384 1388 1391 1395 1399 1407 1414 1418 1428 1434 1439 1443 1451 1457 1460 1466 1470 1473 1477 1481 1484 1487 1489 1491 1494 1495 1498 1500 1501 1503 1504 1507 1508 1507 1508
1373 1374 1371 1371 1365 1365 1370 1376 1382 1386 1391 1394 1399 1406 1412 1419 1426 1432 1438 1442 1446 1452 1455 1460 1461 1467 1469 1473 1476 1478 1480 1481 1483 1486 1487 1489 1492 1494 1497 1499 1501 1503 1504
1378 1375 1374 1375 1369 1369 1371 1375 1382 1388 1394 1398 1402 1406 1413 1420 1428 1433 1438 1442 1445 1447 1450 1453 1456 1459 1462 1464 1466 1467 1469 1471 1472 1476 1478 1480 1483 1484 1487 1491 1494 1497 1497
1386 1384 1381 1380 1378 1379 1377 1380 1382 1388 1393 1398 1402 1408 1415 1421 1427 1431 1435 1437 1440 1443 1445 1448 1450 1452 1455 1456 1457 1457 1457 1459 1462 1465 1468 1471 1475 1475 1478 1483 1487 1489 1489
1397 1396 1394 1391 1388 1388 1388 1388 1389 1393 1397 1402 1406 1410 1416 1420 1424 1428 1430 1433 1436 1438 1440 1441 1442 1443 1445 1446 1447 1447 1447 1448 1453 1455 1454 1460 1462 1466 1471 1476 1478 1482 1482
1408 1406 1403 1401 1399 1398 1400 1399 1400 1403 1405 1407 1411 1413 1414 1418 1421 1423 1424 1426 1429 1430 1430 1431 1433 1433 1433 1436 1436 1436 1436 1438 1441 1441 1446 1448 1454 1458 1463 1470 1472 1475 1476
1416 1413 1411 1409 1407 1407 1407 1406 1406 1405 1407 1409 1411 1413 1416 1418 1419 1421 1421 1422 1422 1423 1424 1425 1425 1425 1424 1423 1427 1424 1425 1429 1426 1429 1433 1440 1444 1448 1456 1461 1464 1467 1468
1420 1418 1416 1413 1412 1412 1411 1411 1410 1409 1410 1411 1412 1415 1417 1418 1419 1419 1418 1420 1419 1418 1418 1418 1417 1415 1416 1415 1417 1418 1419 1421 1422 1424 1427 1432 1434 1439 1447 1453 1458 1460 1461
1422 1419 1417 1415 1414 1412 1411 1411 1412 1412 1412 1412 1413 1415 1416 1418 1419 1418 1418 1417 1417 1416 1415 1412 1410 1408 1408 1408 1409 1409 1409 1410 1413 1413 1417 1422 1429 1437 1440 1445 1449 1450 1453
1424 1421 1420 1419 1418 1416 1416 1415 1414 1414 1414 1414 1414 1415 1415 1416 1415 1414 1412 1412 1412 1411 1410 1407 1406 1404 1403 1402 1403 1403 1403 1404 1405 1405 1409 1416 1422 1427 1431 1438 1439 1442 1446
1425 1424 1422 1421 1420 1421 1420 1419 1418 1419 1418 1419 1418 1417 1416 1414 1414 1412 1411 1408 1406 1404 1401 1398 1398 1397 1396 1396 1395 1395 1394 1396 1397 1400 1403 1408 1415 1418 1423 1428 1432 1434 1438
1425 1424 1424 1424 1424 1421 1421 1419 1419 1421 1420 1420 1419 1416 1415 1416 1414 1410 1407 1405 1404 1402 1398 1395 1393 1391 1390 1390 1387 1389 1388 1389 1390 1391 1393 1396 1402 1410 1414 1419 1426 1428 1433
1429 1428 1426 1424 1422 1420 1418 1415 1417 1417 1416 1418 1416 1415 1413 1411 1408 1405 1403 1402 1400 1397 1393 1391 1389 1386 1383 1381 1381 1380 1380 1379 1382 1386 1389 1388 1395 1399 1402 1407 1415 1421 1425
1429 1426 1424 1423 1421 1419 1418 1419 1419 1418 1414 1411 1411 1408 1407 1405 1403 1400 1398 1392 1389 1390 1389 1386 1382 1379 1376 1374 1373 1373 1373 1373 1374 1378 1378 1379 1384 1390 1395 1400 1405 1412 1417
1427 1425 1424 1423 1422 1422 1421 1419 1417 1415 1412 1410 1407 1407 1404 1402 1400 1398 1396 1393 1390 1385 1383 1378 1375 1373 1370 1368 1366 1365 1364 1364 1364 1367 1371 1371 1376 1382 1387 1391 1397 1406 1411
1427 1426 1426 1425 1424 1423 1422 1420 1418 1417 1415 1413 1410 1407 1403 1400 1398 1394 1392 1389 1386 1382 1378 1374 1370 1367 1363 1360 1358 1356 1354 1354 1356 1358 1359 1363 1369 1375 1380 1383 1391 1398 1404
1428 1427 1426 1426 1425 1424 1423 1422 1421 1418 1415 1413 1411 1408 1404 1402 1398 1394 1390 1388 1384 1379 1374 1369 1363 1359 1356 1352 1349 1347 1347 1346 1347 1348 1347 1352 1357 1364 1372 1379 1386 1391 1400
1427 1426 1426 1426 1426 1426 1425 1422 1419 1416 1414 1411 1408 1405 1402 1399 1395 1392 1388 1384 1380 1375 1370 1364 1358 1352 1348 1344 1341 1339 1338 1338 1339 1340 1342 1348 1352 1359 1366 1372 1379 1386 1392
1426 1426 1427 1427 1426 1424 1422 1420 1416 1414 1411 1409 1405 1402 1400 1397 1393 1389 1385 1381 1378 1373 1368 1361 1354 1347 1341 1337 1333 1331 1331 1331 1333 1335 1337 1341 1347 1353 1360 1367 1375 1381 1386
1425 1426 1425 1425 1424 1421 1420 1417 1414 1412 1410 1408 1404 1401 1397 1394 1390 1386 1383 1379 1376 1373 1368 1362 1355 1348 1340 1335 1331 1330 1328 1328 1329 1331 1335 1340 1347 1352 1358 1365 1372 1377 1382
1423 1424 1423 1422 1420 1419 1418 1416 1413 1411 1408 1405 1402 1398 1395 1393 1389 1385 1382 1379 1375 1371 1367 1363 1358 1353 1347 1343 1339 1336 1333 1333 1333 1335 1339 1343 1347 1353 1358 1364 1369 1374 1378
1422 1421 1421 1420 1418 1417 1416 1414 1411 1409 1406 1403 1400 1397 1393 1391 1387 1384 1381 1378 1374 1371 1367 1364 1361 1358 1355 1352 1348 1345 1341 1340 1339 1340 1340 1344 1350 1354 1359 1364 1368 1372 1378